Time,TemperatureF,DewpointF,PressureIn,WindDirection,WindDirectionDegrees,WindSpeedMPH,WindSpeedGustMPH,Humidity,HourlyPrecipIn,Conditions,Clouds,dailyrainin,SoftwareType,DateUTC
2013-01-29 00:14:00,39.2,36.0,29.98,West,276,10.0,-999.0,89,-99.99,,,0.00,weatherlink.com 1.10,2013-01-29 05:14:00,
2013-01-29 00:29:00,38.9,36.0,29.99,West,279,10.0,-999.0,89,-99.99,,,0.00,weatherlink.com 1.10,2013-01-29 05:29:00,
2013-01-29 00:44:00,38.8,36.0,29.99,WSW,255,3.0,-999.0,89,-99.99,,,0.00,weatherlink.com 1.10,2013-01-29 05:44:00,
2013-01-29 01:00:00,38.5,36.0,30.00,West,261,3.0,-999.0,89,-99.99,,,0.00,weatherlink.com 1.10,2013-01-29 06:00:00,
2013-01-29 01:15:00,38.2,35.0,30.00,WNW,284,5.0,-999.0,89,-99.99,,,0.00,weatherlink.com 1.10,2013-01-29 06:15:00,
2013-01-29 01:30:00,38.0,35.0,30.00,West,269,0.0,-999.0,89,-99.99,,,0.00,weatherlink.com 1.10,2013-01-29 06:30:00,
2013-01-29 01:45:00,37.9,35.0,30.01,West,261,2.0,-999.0,89,-99.99,,,0.00,weatherlink.com 1.10,2013-01-29 06:45:00,
2013-01-29 02:00:00,37.9,35.0,30.01,West,279,4.0,-999.0,89,-99.99,,,0.00,weatherlink.com 1.10,2013-01-29 07:00:00,
2013-01-29 02:15:00,37.5,35.0,30.01,WNW,288,0.0,-999.0,89,-99.99,,,0.00,weatherlink.com 1.10,2013-01-29 07:15:00,
2013-01-29 02:30:00,37.4,35.0,30.01,West,281,3.0,-999.0,89,-99.99,,,0.00,weatherlink.com 1.10,2013-01-29 07:30:00,
2013-01-29 02:45:00,37.1,34.0,30.02,WNW,292,5.0,-999.0,89,-99.99,,,0.00,weatherlink.com 1.10,2013-01-29 07:45:00,
2013-01-29 03:00:00,36.9,34.0,30.02,WNW,291,0.0,-999.0,88,-99.99,,,0.00,weatherlink.com 1.10,2013-01-29 08:00:00,
2013-01-29 03:15:00,36.8,34.0,30.02,WNW,283,1.0,-999.0,88,-99.99,,,0.00,weatherlink.com 1.10,2013-01-29 08:15:00,
2013-01-29 03:30:00,36.6,34.0,30.02,West,279,2.0,-999.0,89,-99.99,,,0.00,weatherlink.com 1.10,2013-01-29 08:30:00,
2013-01-29 03:45:00,36.5,34.0,30.01,West,279,0.0,-999.0,89,-99.99,,,0.00,weatherlink.com 1.10,2013-01-29 08:45:00,
2013-01-29 04:00:00,36.3,33.0,30.02,West,279,0.0,-999.0,89,-99.99,,,0.00,weatherlink.com 1.10,2013-01-29 09:00:00,
2013-01-29 04:15:00,36.3,33.0,30.02,West,279,0.0,-999.0,89,-99.99,,,0.00,weatherlink.com 1.10,2013-01-29 09:15:00,
2013-01-29 04:30:00,36.2,33.0,30.02,WSW,249,0.0,-999.0,88,-99.99,,,0.00,weatherlink.com 1.10,2013-01-29 09:30:00,
2013-01-29 04:45:00,36.2,33.0,30.02,WSW,249,0.0,-999.0,88,-99.99,,,0.00,weatherlink.com 1.10,2013-01-29 09:45:00,
2013-01-29 05:00:00,36.1,33.0,30.03,WSW,250,0.0,-999.0,88,-99.99,,,0.00,weatherlink.com 1.10,2013-01-29 10:00:00,
2013-01-29 05:15:00,36.0,33.0,30.03,WSW,249,0.0,-999.0,89,-99.99,,,0.00,weatherlink.com 1.10,2013-01-29 10:15:00,
2013-01-29 05:30:00,36.0,33.0,30.03,WSW,248,0.0,-999.0,89,-99.99,,,0.00,weatherlink.com 1.10,2013-01-29 10:30:00,
2013-01-29 05:45:00,35.8,33.0,30.03,WSW,242,0.0,-999.0,89,-99.99,,,0.00,weatherlink.com 1.10,2013-01-29 10:45:00,
2013-01-29 06:00:00,35.5,32.0,30.03,WSW,242,0.0,-999.0,88,-99.99,,,0.00,weatherlink.com 1.10,2013-01-29 11:00:00,
2013-01-29 06:15:00,35.4,33.0,30.02,WSW,243,0.0,-999.0,89,-99.99,,,0.00,weatherlink.com 1.10,2013-01-29 11:15:00,
2013-01-29 06:30:00,35.4,33.0,30.02,SSW,209,0.0,-999.0,89,-99.99,,,0.00,weatherlink.com 1.10,2013-01-29 11:30:00,
2013-01-29 06:45:00,35.3,32.0,30.02,SSW,205,0.0,-999.0,89,-99.99,,,0.00,weatherlink.com 1.10,2013-01-29 11:45:00,
2013-01-29 07:00:00,35.3,32.0,30.02,SSW,200,0.0,-999.0,89,-99.99,,,0.00,weatherlink.com 1.10,2013-01-29 12:00:00,
2013-01-29 07:15:00,35.3,32.0,30.02,SSW,200,0.0,-999.0,89,-99.99,,,0.00,weatherlink.com 1.10,2013-01-29 12:15:00,
2013-01-29 07:30:00,35.4,33.0,30.02,SSW,200,0.0,-999.0,89,-99.99,,,0.00,weatherlink.com 1.10,2013-01-29 12:30:00,
2013-01-29 07:45:00,35.5,33.0,30.02,SSW,199,0.0,-999.0,89,-99.99,,,0.00,weatherlink.com 1.10,2013-01-29 12:45:00,
2013-01-29 08:00:00,35.6,33.0,30.03,SSW,199,0.0,-999.0,89,-99.99,,,0.00,weatherlink.com 1.10,2013-01-29 13:00:00,
2013-01-29 08:15:00,35.9,33.0,30.02,SE,134,0.0,-999.0,89,-99.99,,,0.00,weatherlink.com 1.10,2013-01-29 13:15:00,
2013-01-29 08:30:00,36.1,33.0,30.02,SE,127,5.0,-999.0,89,-99.99,,,0.00,weatherlink.com 1.10,2013-01-29 13:30:00,
2013-01-29 08:45:00,36.5,34.0,30.01,SE,125,1.0,-999.0,89,-99.99,,,0.00,weatherlink.com 1.10,2013-01-29 13:45:00,
2013-01-29 09:00:00,36.6,34.0,30.01,ESE,119,2.0,-999.0,89,-99.99,,,0.00,weatherlink.com 1.10,2013-01-29 14:00:00,
2013-01-29 09:15:00,37.0,34.0,30.00,ESE,123,5.0,-999.0,89,-99.99,,,0.00,weatherlink.com 1.10,2013-01-29 14:15:00,
2013-01-29 09:30:00,37.5,35.0,30.00,SE,126,5.0,-999.0,89,-99.99,,,0.00,weatherlink.com 1.10,2013-01-29 14:30:00,
2013-01-29 09:45:00,37.7,35.0,29.98,ESE,123,5.0,-999.0,89,-99.99,,,0.00,weatherlink.com 1.10,2013-01-29 14:45:00,
2013-01-29 10:00:00,37.9,35.0,29.97,ESE,109,0.0,-999.0,89,-99.99,,,0.00,weatherlink.com 1.10,2013-01-29 15:00:00,
2013-01-29 10:15:00,38.3,35.0,29.97,SE,125,5.0,-999.0,89,-99.99,,,0.00,weatherlink.com 1.10,2013-01-29 15:15:00,
2013-01-29 10:30:00,38.7,36.0,29.98,ESE,122,4.0,-999.0,89,-99.99,,,0.00,weatherlink.com 1.10,2013-01-29 15:30:00,
2013-01-29 10:45:00,39.1,36.0,29.95,ESE,107,4.0,-999.0,89,-99.99,,,0.00,weatherlink.com 1.10,2013-01-29 15:45:00,
2013-01-29 11:00:00,39.3,36.0,29.95,ESE,111,2.0,-999.0,89,-99.99,,,0.00,weatherlink.com 1.10,2013-01-29 16:00:00,
2013-01-29 11:15:00,39.6,37.0,29.93,SE,124,4.0,-999.0,89,-99.99,,,0.00,weatherlink.com 1.10,2013-01-29 16:15:00,
2013-01-29 11:30:00,39.8,37.0,29.93,East,98,2.0,-999.0,89,-99.99,,,0.00,weatherlink.com 1.10,2013-01-29 16:30:00,
2013-01-29 11:45:00,40.0,37.0,29.92,ENE,66,0.0,-999.0,89,-99.99,,,0.00,weatherlink.com 1.10,2013-01-29 16:45:00,
2013-01-29 12:00:00,39.8,37.0,29.93,NE,51,2.0,-999.0,89,-99.99,,,0.02,weatherlink.com 1.10,2013-01-29 17:00:00,
2013-01-29 12:15:00,39.7,37.0,29.97,NNW,346,0.0,-999.0,89,-99.99,,,0.12,weatherlink.com 1.10,2013-01-29 17:15:00,
2013-01-29 12:30:00,39.6,37.0,29.91,ESE,114,7.0,-999.0,89,-99.99,,,0.17,weatherlink.com 1.10,2013-01-29 17:30:00,
2013-01-29 12:45:00,40.4,38.0,29.81,SE,131,18.0,-999.0,89,-99.99,,,0.21,weatherlink.com 1.10,2013-01-29 17:45:00,
2013-01-29 13:00:00,41.8,39.0,29.87,SSE,156,10.0,-999.0,89,-99.99,,,0.22,weatherlink.com 1.10,2013-01-29 18:00:00,
2013-01-29 13:16:00,42.5,40.0,29.88,SSW,206,0.0,-999.0,89,-99.99,,,0.22,weatherlink.com 1.10,2013-01-29 18:16:00,
2013-01-29 13:31:00,42.5,40.0,29.88,SSW,206,0.0,-999.0,89,-99.99,,,0.22,weatherlink.com 1.10,2013-01-29 18:31:00,
2013-01-29 13:46:00,42.5,40.0,29.86,ESE,107,0.0,-999.0,89,-99.99,,,0.22,weatherlink.com 1.10,2013-01-29 18:46:00,
2013-01-29 14:01:00,42.6,40.0,29.85,ESE,107,0.0,-999.0,89,-99.99,,,0.22,weatherlink.com 1.10,2013-01-29 19:01:00,
2013-01-29 14:16:00,42.9,40.0,29.84,ESE,108,0.0,-999.0,89,-99.99,,,0.22,weatherlink.com 1.10,2013-01-29 19:16:00,
2013-01-29 14:31:00,43.3,40.0,29.83,ESE,108,0.0,-999.0,89,-99.99,,,0.22,weatherlink.com 1.10,2013-01-29 19:31:00,
2013-01-29 14:46:00,43.8,41.0,29.83,ESE,112,0.0,-999.0,89,-99.99,,,0.22,weatherlink.com 1.10,2013-01-29 19:46:00,
2013-01-29 15:01:00,43.6,41.0,29.83,SE,141,0.0,-999.0,89,-99.99,,,0.22,weatherlink.com 1.10,2013-01-29 20:01:00,
2013-01-29 15:16:00,43.6,41.0,29.84,SSE,164,0.0,-999.0,89,-99.99,,,0.23,weatherlink.com 1.10,2013-01-29 20:16:00,
2013-01-29 15:31:00,46.9,44.0,29.84,SSW,199,3.0,-999.0,90,-99.99,,,0.26,weatherlink.com 1.10,2013-01-29 20:31:00,
2013-01-29 15:46:00,49.2,47.0,29.83,South,182,6.0,-999.0,90,-99.99,,,0.29,weatherlink.com 1.10,2013-01-29 20:46:00,
2013-01-29 16:01:00,50.0,47.0,29.82,SSW,202,8.0,-999.0,90,-99.99,,,0.31,weatherlink.com 1.10,2013-01-29 21:01:00,
2013-01-29 16:16:00,49.7,47.0,29.81,SSE,161,8.0,-999.0,89,-99.99,,,0.32,weatherlink.com 1.10,2013-01-29 21:16:00,
2013-01-29 16:31:00,49.7,47.0,29.82,South,173,9.0,-999.0,89,-99.99,,,0.33,weatherlink.com 1.10,2013-01-29 21:31:00,
2013-01-29 16:46:00,50.0,47.0,29.82,South,187,8.0,-999.0,89,-99.99,,,0.33,weatherlink.com 1.10,2013-01-29 21:46:00,
2013-01-29 17:01:00,49.6,47.0,29.82,SSW,198,7.0,-999.0,89,-99.99,,,0.33,weatherlink.com 1.10,2013-01-29 22:01:00,
2013-01-29 17:16:00,49.7,47.0,29.82,South,186,3.0,-999.0,89,-99.99,,,0.33,weatherlink.com 1.10,2013-01-29 22:16:00,
2013-01-29 17:31:00,50.5,47.0,29.82,SSW,196,8.0,-999.0,89,-99.99,,,0.33,weatherlink.com 1.10,2013-01-29 22:31:00,
2013-01-29 17:46:00,50.6,48.0,29.82,South,185,3.0,-999.0,89,-99.99,,,0.33,weatherlink.com 1.10,2013-01-29 22:46:00,
2013-01-29 18:01:00,51.2,48.0,29.82,SSW,202,7.0,-999.0,89,-99.99,,,0.33,weatherlink.com 1.10,2013-01-29 23:01:00,
2013-01-29 18:16:00,51.1,48.0,29.81,South,182,6.0,-999.0,89,-99.99,,,0.34,weatherlink.com 1.10,2013-01-29 23:16:00,
2013-01-29 18:31:00,51.2,48.0,29.80,South,187,7.0,-999.0,89,-99.99,,,0.34,weatherlink.com 1.10,2013-01-29 23:31:00,
2013-01-29 18:46:00,51.2,48.0,29.80,South,180,8.0,-999.0,89,-99.99,,,0.34,weatherlink.com 1.10,2013-01-29 23:46:00,
2013-01-29 19:01:00,51.2,48.0,29.81,South,186,5.0,-999.0,89,-99.99,,,0.34,weatherlink.com 1.10,2013-01-30 00:01:00,
2013-01-29 19:16:00,51.6,48.0,29.80,South,182,6.0,-999.0,88,-99.99,,,0.34,weatherlink.com 1.10,2013-01-30 00:16:00,
2013-01-29 19:31:00,52.0,49.0,29.80,South,183,3.0,-999.0,88,-99.99,,,0.34,weatherlink.com 1.10,2013-01-30 00:31:00,
2013-01-29 19:46:00,52.4,49.0,29.81,SSW,209,5.0,-999.0,88,-99.99,,,0.34,weatherlink.com 1.10,2013-01-30 00:46:00,
2013-01-29 20:01:00,53.8,50.0,29.81,SSW,209,8.0,-999.0,88,-99.99,,,0.35,weatherlink.com 1.10,2013-01-30 01:01:00,
2013-01-29 20:16:00,53.2,50.0,29.80,SSW,196,7.0,-999.0,87,-99.99,,,0.36,weatherlink.com 1.10,2013-01-30 01:16:00,
2013-01-29 20:31:00,53.3,50.0,29.80,SSW,192,6.0,-999.0,87,-99.99,,,0.36,weatherlink.com 1.10,2013-01-30 01:31:00,
2013-01-29 20:46:00,53.1,49.0,29.79,SSW,197,0.0,-999.0,87,-99.99,,,0.36,weatherlink.com 1.10,2013-01-30 01:46:00,
2013-01-29 21:01:00,52.6,49.0,29.80,SSW,202,0.0,-999.0,87,-99.99,,,0.36,weatherlink.com 1.10,2013-01-30 02:01:00,
2013-01-29 21:16:00,52.4,49.0,29.79,SSW,196,5.0,-999.0,87,-99.99,,,0.36,weatherlink.com 1.10,2013-01-30 02:16:00,
2013-01-29 21:31:00,52.5,49.0,29.79,South,189,5.0,-999.0,87,-99.99,,,0.36,weatherlink.com 1.10,2013-01-30 02:31:00,
2013-01-29 21:46:00,53.3,50.0,29.77,South,176,4.0,-999.0,87,-99.99,,,0.36,weatherlink.com 1.10,2013-01-30 02:46:00,
2013-01-29 22:01:00,53.4,50.0,29.78,SSW,192,9.0,-999.0,87,-99.99,,,0.37,weatherlink.com 1.10,2013-01-30 03:01:00,
2013-01-29 22:16:00,54.5,51.0,29.77,South,182,10.0,-999.0,87,-99.99,,,0.38,weatherlink.com 1.10,2013-01-30 03:16:00,
2013-01-29 22:31:00,55.3,52.0,29.76,SSW,193,11.0,-999.0,87,-99.99,,,0.39,weatherlink.com 1.10,2013-01-30 03:31:00,
2013-01-29 22:46:00,55.0,51.0,29.75,South,170,5.0,-999.0,86,-99.99,,,0.39,weatherlink.com 1.10,2013-01-30 03:46:00,
2013-01-29 23:01:00,54.4,50.0,29.74,South,169,12.0,-999.0,86,-99.99,,,0.39,weatherlink.com 1.10,2013-01-30 04:01:00,
2013-01-29 23:16:00,54.5,51.0,29.73,South,172,11.0,-999.0,89,-99.99,,,0.40,weatherlink.com 1.10,2013-01-30 04:16:00,
2013-01-29 23:31:00,55.1,51.0,29.74,South,185,12.0,-999.0,86,-99.99,,,0.40,weatherlink.com 1.10,2013-01-30 04:31:00,
2013-01-29 23:46:00,55.4,51.0,29.73,South,173,10.0,-999.0,86,-99.99,,,0.42,weatherlink.com 1.10,2013-01-30 04:46:00,